Le nostre stazioni meteo in Italia

Pubblicità
Il mio iltempo24.it
Grenoble/St.Geoirs, Francia (7486): Temperatura & dewpoint: 13.04.2019 17:00:00 - 19.04.2019 17:00:00 (CEST)Grenoble/St.Geoirs, Francia (7486): Temperatura 5cm: 13.04.2019 17:00:00 - 19.04.2019 17:00:00 (CEST)Grenoble/St.Geoirs, Francia (7486): Temperatura -20cm & Temperatura -100cm: 13.04.2019 17:00:00 - 19.04.2019 17:00:00 (CEST)Grenoble/St.Geoirs, Francia (7486): velocità del vento & gusts: 13.04.2019 17:00:00 - 19.04.2019 17:00:00 (CEST)Grenoble/St.Geoirs, Francia (7486): direzione del vento: 13.04.2019 17:00:00 - 19.04.2019 17:00:00 (CEST)Grenoble/St.Geoirs, Francia (7486): reduced air pressure: 13.04.2019 17:00:00 - 19.04.2019 17:00:00 (CEST)Grenoble/St.Geoirs, Francia (7486): visibility: 13.04.2019 17:00:00 - 19.04.2019 17:00:00 (CEST)Grenoble/St.Geoirs, Francia (7486): ore di luce: 13.04.2019 17:00:00 - 19.04.2019 17:00:00 (CEST)Grenoble/St.Geoirs, Francia (7486): precipitazioni: 13.04.2019 17:00:00 - 19.04.2019 17:00:00 (CEST)
Data & Tempo tt [°C] td [°C] tt 5cm [°C] tt -20cm [°C] tt -100cm [°C] ff [km/h] ff [kn] fx [km/h] fx [kn] dd ppp [hPa] vv [km] sd [min] rr [mm]
19.04.2019 17:00:00 23,1 5,5 28,3 11,9 9,9 9 5 19 11 SO 1022,8 19 60 0,0
19.04.2019 16:00:00 22,5 5,4 28,3 11,6 9,9 7 4 16 9 SSO 1023,3 20 60 0,0
19.04.2019 15:00:00 21,9 5,7 27,6 11,5 9,9 3 2 18 10 SSO 1023,9 19 60 0,0
19.04.2019 14:00:00 20,9 6,0 26,6 11,4 9,8 7 4 14 8 NNO 1024,3 34 60 0,0
19.04.2019 13:00:00 20,0 6,0 24,6 11,3 9,9 5 3 14 8 ONO 1025,0 20 60 0,0
19.04.2019 12:00:00 19,0 5,4 24,8 11,3 9,9 7 4 12 6 NO 1025,4 19 60 0,0
19.04.2019 11:00:00 19,1 5,5 24,1 11,4 9,9 3 2 14 8 ONO 1025,6 13 60 0,0
19.04.2019 10:00:00 16,8 6,0 17,8 11,4 9,8 6 3 19 10 NE 1025,6 20 60 0,0
19.04.2019 09:00:00 13,8 7,3 13,0 11,5 9,8 16 9 21 11 E 1025,7 14 60 0,0
19.04.2019 08:00:00 10,0 6,7 6,2 11,6 9,8 12 6 17 9 E 1025,7 12 51 0,0
19.04.2019 07:00:00 6,9 4,4 4,8 11,6 9,8 14 7 16 8 E 1025,4 10 0 0,0
19.04.2019 06:00:00 6,8 4,3 5,3 11,7 9,8 13 7 16 8 E 1024,9 11 0 0,0
19.04.2019 05:00:00 8,1 5,0 6,4 11,7 9,8 12 6 15 8 E 1024,5 11 0 0,0
19.04.2019 04:00:00 9,7 6,0 8,5 11,8 9,8 12 7 14 8 E 1023,9 11 0 0,0
19.04.2019 03:00:00 9,7 5,9 8,2 11,8 9,8 11 6 13 7 E 1023,9 10 0 0,0
19.04.2019 02:00:00 9,0 5,7 6,4 11,8 9,8 9 5 13 7 E 1024,1 12 0 0,0
19.04.2019 01:00:00 11,3 5,0 7,2 11,9 9,8 4 2 21 12 NNE 1023,6 12 0 0,0
19.04.2019 00:00:00 14,5 4,5 10,0 11,9 9,8 10 5 19 11 SO 1022,7 20 0 0,0
18.04.2019 23:00:00 13,2 4,3 8,0 11,8 9,8 4 2 10 5 SO 1022,3 19 0 0,0
18.04.2019 22:00:00 14,6 4,6 10,6 11,7 9,7 9 5 16 9 SSO 1021,7 24 0 0,0
18.04.2019 21:00:00 16,1 4,8 11,0 11,7 9,8 6 3 20 11 SSO 1020,8 30 0 0,0
18.04.2019 20:00:00 17,6 5,2 16,5 11,5 9,8 16 9 29 16 SO 1019,9 25 0 0,0
18.04.2019 19:00:00 18,8 5,6 19,0 11,4 9,7 18 10 32 17 SO 1019,1 27 33 0,0
18.04.2019 18:00:00 20,0 6,0 23,0 11,1 9,7 21 11 33 18 OSO 1018,5 22 60 0,0
18.04.2019 17:00:00 20,4 7,7 25,2 11,0 9,7 10 6 31 17 SO 1018,2 25 60 0,0
18.04.2019 16:00:00 20,2 6,9 26,6 10,8 9,7 18 10 30 16 SO 1018,5 41 60 0,0
18.04.2019 15:00:00 20,1 6,8 26,5 10,7 9,7 14 8 29 16 SO 1018,6 47 60 0,0
18.04.2019 14:00:00 18,9 6,7 26,8 10,6 9,7 10 6 24 13 O 1018,9 24 60 0,0
18.04.2019 13:00:00 18,6 7,4 25,7 10,6 9,7 3 2 18 10 O 1019,4 19 60 0,0
18.04.2019 12:00:00 16,6 5,2 22,4 10,6 9,7 6 3 13 7 ONO 1020,1 30 60 0,0
18.04.2019 11:00:00 16,1 6,0 21,1 10,6 9,7 4 2 13 7 S 1020,5 20 60 0,0
18.04.2019 10:00:00 14,2 7,0 15,5 10,7 9,7 8 4 16 9 E 1021,0 18 60 0,0
18.04.2019 09:00:00 10,9 7,6 10,0 10,7 9,7 12 6 18 10 ENE 1021,4 15 33 0,0
18.04.2019 08:00:00 8,2 6,7 4,6 10,8 9,7 11 6 18 10 ENE 1021,5 10 47 0,0
18.04.2019 07:00:00 5,2 4,2 3,0 10,9 9,7 15 8 18 10 E 1021,4 0,9 0 0,0
18.04.2019 06:00:00 5,2 3,8 3,4 10,9 9,7 14 8 17 9 E 1021,1 10 0 0,0
18.04.2019 05:00:00 5,1 2,8 3,1 11,0 9,7 9 5 12 6 E 1021,1 10 0 0,0
18.04.2019 04:00:00 7,1 3,9 4,4 11,0 9,7 6 4 14 8 E 1021,0 13 0 0,0
18.04.2019 03:00:00 7,8 3,8 5,4 11,1 9,6 7 4 12 6 E 1021,3 15 0 0,0
18.04.2019 02:00:00 10,4 4,5 5,4 11,1 9,6 3 2 18 10 SSE 1021,0 32 0 0,0
18.04.2019 01:00:00 11,2 4,6 7,9 11,1 9,6 11 6 25 13 SO 1021,0 32 0 0,0
18.04.2019 00:00:00 12,0 4,5 9,6 11,1 9,6 10 6 23 12 SO 1020,3 32 0 0,0
17.04.2019 23:00:00 12,7 5,6 7,1 11,0 9,6 11 6 22 12 O 1019,7 25 0 0,0
17.04.2019 22:00:00 12,7 6,1 6,9 11,0 9,6 4 2 12 7 ONO 1019,3 22 0 0,0
17.04.2019 21:00:00 13,8 5,2 9,6 10,9 9,6 7 4 24 13 SO 1018,4 26 0 0,0
17.04.2019 20:00:00 16,0 5,3 14,2 10,7 9,6 14 7 24 13 SSO 1017,3 30 0 0,0
17.04.2019 19:00:00 18,1 5,6 18,9 10,5 9,6 18 10 28 15 SO 1016,6 29 45 0,0
17.04.2019 18:00:00 18,8 6,3 21,8 10,3 9,6 21 12 32 17 SO 1016,5 32 60 0,0
17.04.2019 17:00:00 20,1 6,4 25,4 10,1 9,6 9 5 27 15 OSO 1016,2 28 60 0,0
17.04.2019 16:00:00 19,4 6,5 25,2 9,9 9,6 10 6 32 17 OSO 1016,8 32 60 0,0
17.04.2019 15:00:00 18,8 7,2 25,4 9,7 9,6 15 8 29 16 O 1017,4 20 60 0,0
17.04.2019 14:00:00 18,0 6,8 27,3 9,6 9,6 7 4 21 11 NO 1018,2 12 60 0,0
17.04.2019 13:00:00 16,9 6,4 24,8 9,6 9,6 4 2 13 7 NNO 1018,7 26 60 0,0
17.04.2019 12:00:00 15,5 5,4 20,9 9,5 9,6 4 2 16 9 NNE 1019,3 19 60 0,0
17.04.2019 11:00:00 14,2 6,8 17,9 9,6 9,6 8 4 20 11 ENE 1020,0 30 60 0,0
17.04.2019 10:00:00 12,2 7,1 14,0 9,7 9,6 13 7 20 11 E 1020,5 13 60 0,0
17.04.2019 09:00:00 9,6 6,9 7,6 9,8 9,6 16 8 20 11 E 1021,3 13 60 0,0
17.04.2019 08:00:00 5,1 4,4 0,3 9,8 9,6 8 4 11 6 E 1022,1 4,9 47 0,0
17.04.2019 07:00:00 2,4 1,5 -0,8 9,9 9,6 8 5 10 5 E 1022,2 1,6 0 0,0
17.04.2019 06:00:00 3,4 2,5 -0,1 10,0 9,6 8 5 13 7 ESE 1021,8 5 0 0,0
17.04.2019 05:00:00 4,0 3,1 1,4 10,0 9,6 10 6 17 9 ENE 1021,6 5 0 0,0
17.04.2019 04:00:00 3,8 2,8 2,0 10,1 9,6 13 7 15 8 E 1022,1 6 0 0,0
17.04.2019 03:00:00 4,3 3,3 2,8 10,1 9,6 13 7 16 8 E 1022,4 6 0 0,0
17.04.2019 02:00:00 5,2 4,2 4,1 10,2 9,6 11 6 14 7 E 1022,5 3,3 0 0,0
17.04.2019 01:00:00 5,4 4,5 2,2 10,2 9,6 8 4 10 6 E 1022,4 5 0 0,0
17.04.2019 00:00:00 5,8 4,9 1,6 10,2 9,6 9 5 11 6 E 1022,0 6 0 0,0
16.04.2019 23:00:00 6,1 3,4 1,5 10,2 9,6 4 2 6 3 E 1022,1 10 0 0,0
16.04.2019 22:00:00 9,0 6,3 3,6 10,1 9,6 3 2 10 5 S 1021,2 26 0 0,0
16.04.2019 21:00:00 10,7 6,6 7,4 10,1 9,6 7 4 9 5 ESE 1020,8 20 0 0,0
16.04.2019 20:00:00 11,8 7,7 10,5 10,0 9,6 0 0 15 8 N 1020,2 32 0 0,2
16.04.2019 19:00:00 12,4 6,4 12,2 10,0 9,6 10 6 16 9 OSO 1019,9 39 0 0,0
16.04.2019 18:00:00 12,6 6,4 13,5 9,9 9,6 11 6 21 11 SO 1019,9 40 0 0,0
16.04.2019 17:00:00 12,4 6,4 13,2 9,9 9,6 13 7 29 16 S 1019,8 29 0 0,0
16.04.2019 16:00:00 11,8 5,9 12,8 9,9 9,6 20 11 32 17 SO 1020,3 27 0 0,0
16.04.2019 15:00:00 10,9 6,2 11,8 9,9 9,6 20 11 32 17 SO 1020,7 23 0 0,0
16.04.2019 14:00:00 10,8 5,7 12,0 9,9 9,6 19 10 38 20 SO 1020,7 26 0 0,0
16.04.2019 13:00:00 10,4 5,4 10,7 9,9 9,6 22 12 40 22 SO 1020,9 18 0 0,0
16.04.2019 12:00:00 10,2 5,8 10,6 9,9 9,6 15 8 33 18 SO 1020,8 28 0 0,0
16.04.2019 11:00:00 9,8 4,8 10,4 9,9 9,6 22 12 42 23 SO 1020,6 30 0 0,0
16.04.2019 10:00:00 10,2 5,6 9,6 9,9 9,6 16 9 26 14 SO 1020,0 33 0 0,0
16.04.2019 09:00:00 10,4 3,9 9,1 9,9 9,6 13 7 24 13 S 1019,5 35 0 0,0
16.04.2019 08:00:00 9,2 4,2 8,2 10,0 9,5 8 4 22 12 NNE 1019,0 38 0 0,0
16.04.2019 07:00:00 9,7 4,5 7,6 9,9 9,5 14 8 35 19 SSO 1018,7 29 0 0,0
16.04.2019 06:00:00 8,6 5,9 7,0 10,0 9,6 8 4 18 10 O 1018,7 20 0 0,0
16.04.2019 05:00:00 8,7 6,0 7,7 10,0 9,6 5 3 14 7 ENE 1018,7 10 0 0,0
16.04.2019 04:00:00 9,6 5,4 8,8 10,1 9,6 5 3 29 16 S 1018,2 9 0 0,0
16.04.2019 03:00:00 10,1 5,1 9,1 10,1 9,6 19 10 36 19 SO 1017,5 26 0 0,0
16.04.2019 02:00:00 10,0 5,2 8,7 10,1 9,6 11 6 22 12 SO 1017,4 23 0 0,0
16.04.2019 01:00:00 9,9 5,1 8,2 10,1 9,6 12 6 27 15 SSO 1017,5 23 0 0,0
16.04.2019 00:00:00 10,2 4,8 9,0 10,1 9,6 16 9 34 19 SO 1017,3 25 0 0,0
15.04.2019 23:00:00 10,3 4,4 9,0 10,0 9,6 16 9 38 21 SO 1017,4 28 0 0,0
15.04.2019 22:00:00 11,1 4,5 10,1 9,9 9,6 19 10 37 20 SSO 1017,0 29 0 0,0
15.04.2019 21:00:00 11,7 3,9 10,3 9,8 9,6 11 6 48 26 SSO 1016,5 33 0 0,0
15.04.2019 20:00:00 13,3 3,4 12,6 9,7 9,6 31 17 50 27 SSO 1015,5 38 0 0,0
15.04.2019 19:00:00 14,7 3,2 15,1 9,5 9,6 25 13 38 21 SO 1014,9 31 14 0,0
15.04.2019 18:00:00 16,3 2,3 18,9 9,3 9,6 20 11 41 22 S 1014,4 25 54 0,0
15.04.2019 17:00:00 16,0 2,0 20,0 9,1 9,6 16 8 29 15 S 1015,0 23 58 0,0
15.04.2019 16:00:00 16,2 2,6 23,6 8,9 9,6 11 6 32 17 SSO 1015,4 24 60 0,0
15.04.2019 15:00:00 15,6 0,6 22,7 8,8 9,6 11 6 28 15 SSO 1016,3 20 60 0,0
15.04.2019 14:00:00 14,5 2,1 22,3 8,8 9,6 7 4 21 11 SE 1017,3 17 60 0,0
15.04.2019 13:00:00 12,4 1,1 18,6 8,8 9,6 7 4 19 10 E 1018,4 13 60 0,0
15.04.2019 12:00:00 10,5 -0,6 14,3 8,8 9,6 10 6 30 16 ENE 1019,4 10 60 0,0
15.04.2019 11:00:00 9,0 0,4 12,7 8,9 9,6 22 12 36 19 E 1019,5 9 60 0,0
15.04.2019 10:00:00 6,2 0,7 11,1 9,0 9,6 3 2 13 7 SSE 1020,6 9 60 0,0
15.04.2019 09:00:00 2,5 -0,9 2,1 9,1 9,6 4 2 9 5 OSO 1021,6 6 60 0,0
15.04.2019 08:00:00 -0,9 -2,9 -6,7 9,2 9,6 6 3 10 5 E 1022,1 5 44 0,0
15.04.2019 07:00:00 -3,0 -5,2 -8,0 9,3 9,6 5 3 8 5 ESE 1022,1 6 0 0,0
15.04.2019 06:00:00 -2,8 -5,0 -7,4 9,4 9,6 0 0 8 5 N 1021,8 6 0 0,0
15.04.2019 05:00:00 -2,9 -5,1 -6,4 9,6 9,6 10 6 15 8 E 1021,9 6 0 0,0
15.04.2019 04:00:00 -1,8 -3,8 -5,8 9,6 9,6 4 2 10 6 N 1022,3 6 0 0,0
15.04.2019 03:00:00 -1,3 -4,8 -5,3 9,7 9,6 6 3 11 6 E 1022,3 8 0 0,0
15.04.2019 02:00:00 0,7 -4,3 -5,2 9,7 9,6 6 3 12 6 SSE 1022,0 11 0 0,0
15.04.2019 01:00:00 1,9 -3,8 -4,7 9,8 9,6 3 1 7 4 O 1021,8 13 0 0,0
15.04.2019 00:00:00 3,0 -4,0 -1,7 9,8 9,6 5 3 20 11 S 1021,1 12 0 0,0
14.04.2019 23:00:00 4,1 -3,4 1,7 9,8 9,6 16 9 31 17 N 1020,6 13 0 0,0
14.04.2019 22:00:00 5,2 -3,4 3,2 9,8 9,6 21 11 40 21 NNO 1020,2 14 0 0,0
14.04.2019 21:00:00 5,9 -3,2 3,8 9,7 9,6 25 14 39 21 NNO 1019,3 15 0 0,0
14.04.2019 20:00:00 7,1 -3,2 6,6 9,6 9,6 18 10 36 20 NNO 1019,1 16 52 0,0
14.04.2019 19:00:00 8,4 -2,9 11,3 9,5 9,6 23 13 42 23 NO 1017,9 19 48 0,0
14.04.2019 18:00:00 9,1 -2,5 15,0 9,4 9,6 24 13 40 22 NNO 1017,3 18 60 0,0
14.04.2019 17:00:00 9,1 -2,8 17,8 9,2 9,6 26 14 42 23 NNO 1017,1 19 60 0,0
14.04.2019 16:00:00 9,4 -2,6 18,2 9,1 9,6 20 11 39 21 NNO 1017,3 18 60 0,0
14.04.2019 15:00:00 8,8 -3,1 17,5 9,0 9,6 22 12 39 21 NO 1017,8 19 60 0,0
14.04.2019 14:00:00 8,1 -3,1 16,5 9,0 9,6 22 12 39 21 NO 1017,8 21 60 0,0
14.04.2019 13:00:00 7,1 -5,6 15,7 9,0 9,6 20 11 55 30 NO 1018,0 20 60 0,0
14.04.2019 12:00:00 6,3 -4,8 13,8 9,1 9,6 20 11 32 18 NNO 1018,2 22 60 0,0
14.04.2019 11:00:00 5,1 -4,8 12,2 9,2 9,6 18 10 33 18 NNO 1018,5 23 60 0,0
14.04.2019 10:00:00 3,8 -5,2 9,5 9,3 9,6 17 9 27 15 ONO 1018,3 19 60 0,0
14.04.2019 09:00:00 1,7 -3,8 3,4 9,5 9,6 7 4 14 8 O 1018,7 11 60 0,0
14.04.2019 08:00:00 -0,8 -4,0 -6,7 9,6 9,6 6 4 15 8 O 1019,6 9 40 0,0
14.04.2019 07:00:00 -1,6 -4,6 -6,9 9,7 9,6 4 2 10 5 ESE 1019,4 6 0 0,0
14.04.2019 06:00:00 -1,0 -4,5 -6,5 9,8 9,6 2 1 11 6 NO 1019,2 7 0 0,0
14.04.2019 05:00:00 -0,1 -3,8 -6,4 9,9 9,6 3 2 9 5 ONO 1019,0 7 0 0,0
14.04.2019 04:00:00 0,6 -3,5 -5,6 10,0 9,6 5 3 11 6 ONO 1018,9 8 0 0,0
14.04.2019 03:00:00 1,1 -3,4 -3,4 10,1 9,6 4 2 11 6 OSO 1018,8 9 0 0,0
14.04.2019 02:00:00 1,7 -3,8 - - - 5 3 13 7 SSO 1019,0 10 - -
14.04.2019 01:00:00 1,5 -3,4 -4,0 10,2 9,6 4 2 8 5 ONO 1019,3 11 0 0,0
14.04.2019 00:00:00 2,3 -3,4 -2,3 10,3 9,6 3 2 21 12 N 1019,1 12 0 0,0
13.04.2019 23:00:00 4,8 -3,7 -1,8 10,3 9,6 8 4 17 9 ENE 1018,9 12 0 0,0
13.04.2019 22:00:00 5,1 -3,5 -1,2 10,2 9,6 4 2 12 6 S 1019,4 12 0 0,0
13.04.2019 21:00:00 6,1 -3,3 1,1 10,1 9,6 4 2 21 11 SE 1018,8 12 0 0,0
13.04.2019 20:00:00 7,8 -2,0 6,6 10,0 9,6 16 8 32 17 NNO 1018,2 12 60 0,0
13.04.2019 19:00:00 9,4 -1,7 13,3 9,9 9,6 18 10 33 18 N 1017,9 13 49 0,0
13.04.2019 18:00:00 10,3 -0,8 17,5 9,7 9,6 16 9 33 18 N 1017,5 13 60 0,0
13.04.2019 17:00:00 10,6 -0,6 17,9 9,6 9,6 17 9 35 19 NNO 1017,4 12 58 0,0

tt = Temperatura
td = dewpoint
tt 5cm = Temperatura 5cm
tt -20cm = Temperatura -20cm
tt -100cm = Temperatura -100cm
ff = velocità del vento
fx = gusts
dd = direzione del vento
ppp = reduced air pressure
vv = visibility
sd = ore di luce
rr = precipitazioni

Stazioni seguenti

WeatherPro
AMSI
MeteoEarth